Temp
22 21 21 20 20 20 20 20 20 20 20 20 20 19 19 19 19 18 18 18 18 18 18 18 18 18 17 17 17 17 17 17 16 16 15 15 15 16 16 16 15 16 15
23 22 21 21 20 20 20 20 20 20 20 20 20 19 19 19 19 19 18 18 18 18 18 18 18 17 17 17 17 17 17 17 16 16 15 15 15 15 16 15 15 15 15
23 22 22 21 21 20 20 20 20 20 20 19 19 19 19 19 19 18 18 18 18 18 18 17 17 17 17 16 16 16 16 16 16 16 15 15 15 15 15 15 15 15 15
23 23 22 21 21 20 20 20 20 19 19 19 19 19 19 19 18 18 18 18 18 18 17 17 17 17 17 16 16 16 16 16 16 16 15 15 15 15 15 15 15 15 15
23 23 23 22 21 20 20 20 19 19 19 19 19 19 18 18 18 18 18 17 17 17 17 17 17 17 17 16 16 16 16 16 16 16 16 15 15 15 15 15 15 15 15
23 23 23 22 21 21 21 20 20 19 19 19 18 18 18 18 18 18 18 17 17 17 17 17 17 17 17 16 16 15 15 16 15 16 16 16 16 15 15 15 14 15 15
22 22 22 22 21 21 21 21 20 20 19 19 19 19 18 18 18 18 18 18 17 17 17 17 17 17 16 16 16 16 16 15 16 15 16 16 16 15 15 15 15 14 14
22 22 21 21 21 21 21 21 20 20 20 19 19 19 18 19 18 18 18 18 17 17 17 17 17 17 16 16 16 16 16 16 16 16 16 16 15 16 15 15 15 14 14
21 21 21 20 20 20 20 20 20 20 20 19 19 19 19 19 18 18 18 18 18 17 17 17 16 16 16 16 16 16 16 16 16 16 16 16 16 15 15 15 14 14 14
20 20 20 20 20 20 20 20 19 19 19 19 19 19 18 18 18 18 18 18 17 17 17 17 16 16 16 16 16 15 15 16 16 16 16 16 16 15 14 14 14 14 14
20 19 20 20 20 19 19 19 19 19 19 18 18 18 18 18 18 18 17 17 17 17 16 16 16 16 15 15 15 15 15 15 15 16 15 15 15 15 14 14 13 13 14
19 18 19 19 19 19 18 18 19 18 18 18 18 18 17 17 17 17 16 16 16 15 15 15 15 15 15 15 15 15 15 15 15 15 15 15 15 14 14 14 13 14 13
18 18 19 18 18 18 18 18 18 18 18 18 17 17 17 17 17 16 16 15 15 15 14 13 13 13 13 14 14 14 14 15 15 14 15 14 14 14 14 13 13 13 14
19 18 18 18 18 18 18 18 18 18 18 17 17 17 16 16 16 16 15 15 14 13 13 13 13 13 13 13 14 13 13 14 14 13 13 13 14 14 13 13 12 13 13
19 19 18 18 18 17 17 17 17 17 17 17 16 16 16 16 16 16 16 15 14 13 12 13 12 13 13 13 13 14 14 14 14 14 14 14 13 13 12 12 12 13 13
19 19 18 18 18 17 17 17 17 16 16 16 16 16 16 16 16 16 15 15 14 13 12 12 12 12 12 13 13 13 13 12 13 13 13 13 13 12 12 11 12 12 13
20 18 18 18 17 17 16 16 16 16 16 16 16 15 16 16 16 16 15 14 14 13 12 12 12 12 12 12 13 12 12 12 12 12 12 12 12 12 11 11 12 10 12
20 19 18 17 17 17 16 15 16 15 15 15 15 15 15 15 15 16 15 15 14 13 12 12 11 11 12 11 12 11 11 11 11 11 11 11 11 11 10 11 10 10 10
20 18 18 17 16 15 14 15 15 14 13 14 14 14 14 14 15 15 14 14 13 12 12 11 11 11 11 12 11 10 10 11 10 10 10 9 9 10 9 10 9 9 9
20 18 18 16 15 15 16 16 15 14 13 13 12 13 13 13 14 13 13 12 12 11 11 11 10 10 10 10 11 11 10 10 9 9 9 8 8 8 8 8 8 8 8
19 18 17 16 16 17 16 16 15 13 12 11 11 12 13 13 13 12 12 11 11 10 10 10 10 10 9 9 10 9 8 8 8 8 8 7 7 7 7 7 7 7 8
17 17 16 16 18 17 16 15 13 12 11 12 12 12 12 12 12 12 12 11 10 9 9 9 9 9 9 8 8 9 7 6 7 7 7 7 7 7 6 6 6 6 7
14 14 15 17 18 17 14 14 12 12 11 11 11 11 11 11 11 11 11 11 11 10 10 9 9 8 8 8 8 9 7 6 6 5 5 6 6 6 5 5 5 5 6
13 13 13 13 13 12 12 12 11 12 12 10 11 10 11 10 10 10 10 10 10 9 9 9 9 8 8 8 8 8 8 8 5 3 4 5 5 5 5 4 4 4 4
13 13 12 11 11 12 12 12 12 12 11 10 10 11 10 10 9 9 9 9 9 9 9 8 9 8 8 8 7 8 8 7 7 7 3 3 3 4 4 4 3 3 3
12 12 12 11 12 12 12 12 12 12 11 11 11 11 10 9 9 8 8 8 8 8 8 8 8 7 8 8 8 7 7 7 7 7 6 3 2 2 2 2 2 2 2
Height
1518 1521 1525 1528 1531 1536 1537 1538 1538 1539 1541 1542 1543 1545 1547 1548 1549 1551 1552 1553 1554 1555 1555 1556 1556 1556 1556 1556 1557 1557 1558 1559 1559 1560 1561 1561 1562 1562 1563 1562 1562 1562 1563
1518 1522 1525 1528 1531 1534 1537 1540 1541 1540 1542 1543 1544 1545 1548 1550 1551 1553 1554 1554 1555 1556 1556 1557 1557 1558 1559 1558 1559 1559 1559 1560 1561 1562 1563 1563 1564 1564 1565 1565 1564 1564 1564
1518 1521 1525 1528 1530 1533 1536 1538 1541 1542 1543 1545 1546 1547 1549 1550 1551 1553 1554 1556 1556 1558 1558 1558 1558 1559 1560 1560 1560 1561 1561 1562 1563 1564 1565 1565 1565 1566 1566 1567 1567 1566 1566
1518 1521 1524 1527 1530 1531 1535 1538 1540 1542 1544 1545 1547 1548 1549 1551 1552 1553 1555 1557 1558 1558 1559 1560 1560 1561 1561 1562 1562 1563 1564 1564 1565 1566 1567 1567 1567 1567 1568 1569 1569 1568 1568
1517 1520 1523 1526 1529 1531 1533 1536 1539 1542 1544 1546 1547 1549 1551 1552 1554 1555 1557 1558 1559 1559 1560 1561 1561 1562 1562 1564 1565 1565 1565 1565 1566 1567 1568 1568 1569 1569 1568 1569 1570 1570 1570
1517 1520 1522 1525 1528 1530 1532 1535 1538 1540 1543 1546 1547 1549 1551 1552 1553 1556 1556 1558 1559 1561 1561 1562 1562 1563 1563 1564 1565 1566 1567 1566 1566 1567 1568 1569 1569 1570 1570 1570 1570 1571 1572
1518 1521 1523 1525 1528 1531 1533 1534 1536 1539 1542 1545 1547 1548 1550 1551 1553 1555 1557 1558 1559 1560 1562 1563 1564 1563 1564 1565 1565 1566 1567 1567 1567 1567 1568 1568 1569 1570 1571 1571 1571 1571 1572
1519 1521 1524 1526 1529 1531 1534 1536 1537 1539 1541 1544 1545 1547 1549 1550 1551 1553 1555 1557 1559 1560 1561 1563 1564 1564 1564 1565 1565 1565 1566 1567 1567 1568 1568 1568 1568 1569 1570 1571 1571 1572 1573
1520 1523 1523 1524 1527 1530 1533 1535 1538 1540 1542 1544 1545 1547 1548 1550 1551 1553 1553 1555 1557 1558 1559 1561 1563 1564 1564 1564 1565 1565 1565 1566 1566 1567 1567 1568 1568 1568 1570 1570 1570 1572 1573
1519 1521 1523 1524 1526 1528 1531 1533 1536 1538 1541 1543 1545 1547 1548 1549 1551 1552 1553 1554 1555 1557 1557 1558 1560 1562 1563 1563 1563 1563 1564 1564 1564 1566 1566 1566 1567 1568 1569 1570 1570 1571 1572
1517 1519 1522 1524 1525 1528 1529 1532 1535 1537 1540 1541 1544 1545 1547 1548 1549 1551 1552 1552 1553 1555 1555 1556 1557 1559 1560 1561 1561 1562 1562 1562 1562 1563 1564 1565 1566 1568 1568 1569 1569 1570 1571
1515 1517 1520 1522 1524 1527 1529 1530 1532 1535 1537 1540 1541 1544 1546 1547 1548 1549 1551 1551 1551 1553 1554 1553 1553 1555 1557 1558 1559 1560 1559 1560 1561 1562 1563 1563 1563 1565 1567 1568 1569 1569 1569
1513 1517 1518 1521 1523 1525 1527 1529 1530 1532 1535 1537 1539 1541 1543 1544 1545 1546 1548 1549 1549 1550 1551 1552 1552 1552 1554 1555 1557 1557 1557 1557 1558 1560 1561 1562 1562 1563 1565 1567 1568 1568 1568
1509 1513 1516 1518 1520 1523 1525 1527 1529 1530 1533 1535 1536 1538 1540 1541 1543 1543 1545 1546 1547 1547 1549 1551 1551 1552 1552 1553 1555 1555 1555 1556 1557 1558 1560 1562 1562 1563 1563 1565 1565 1566 1567
1505 1508 1512 1515 1516 1517 1521 1524 1526 1527 1530 1532 1534 1536 1538 1538 1540 1540 1541 1542 1543 1544 1546 1548 1550 1550 1551 1552 1553 1554 1554 1555 1556 1557 1559 1560 1562 1563 1563 1563 1564 1565 1565
1501 1504 1508 1510 1513 1515 1517 1520 1523 1526 1529 1530 1531 1533 1536 1537 1537 1538 1538 1540 1540 1541 1542 1545 1548 1548 1549 1550 1552 1553 1554 1554 1554 1556 1557 1558 1559 1560 1562 1561 1562 1562 1563
1498 1501 1504 1507 1511 1513 1516 1519 1522 1524 1527 1529 1531 1532 1533 1535 1535 1536 1536 1537 1538 1539 1541 1541 1545 1546 1547 1549 1551 1553 1553 1554 1554 1554 1556 1556 1556 1558 1559 1559 1559 1561 1559
1493 1496 1500 1504 1508 1511 1515 1519 1521 1522 1525 1527 1529 1531 1532 1534 1534 1533 1534 1535 1536 1537 1538 1539 1542 1544 1545 1546 1549 1551 1551 1552 1553 1553 1553 1555 1555 1556 1557 1557 1558 1558 1557
1490 1495 1499 1501 1506 1509 1513 1516 1518 1521 1524 1527 1529 1531 1532 1532 1532 1533 1533 1534 1535 1534 1535 1538 1539 1542 1543 1544 1545 1547 1549 1551 1552 1552 1552 1553 1553 1554 1555 1555 1556 1555 1555
1487 1490 1495 1500 1505 1509 1514 1517 1518 1521 1523 1526 1528 1529 1529 1530 1530 1531 1531 1532 1533 1535 1535 1536 1537 1540 1542 1542 1543 1544 1546 1548 1550 1550 1551 1552 1552 1553 1554 1554 1554 1554 1554
1481 1484 1488 1495 1500 1508 1512 1517 1519 1522 1524 1526 1527 1527 1527 1528 1529 1528 1529 1530 1531 1533 1534 1534 1535 1536 1538 1540 1541 1542 1543 1544 1546 1549 1550 1552 1553 1553 1553 1553 1553 1553 1553
1480 1482 1487 1493 1498 1503 1507 1513 1520 1523 1524 1526 1527 1526 1525 1527 1527 1527 1527 1527 1529 1530 1531 1532 1533 1534 1534 1537 1537 1539 1541 1545 1545 1545 1547 1549 1550 1551 1551 1551 1552 1552 1552
1481 1484 1486 1489 1495 1502 1506 1508 1513 1517 1521 1524 1524 1524 1525 1526 1526 1525 1525 1525 1526 1526 1527 1527 1529 1531 1533 1534 1536 1536 1537 1537 1540 1544 1545 1546 1547 1549 1550 1550 1550 1550 1550
1482 1486 1488 1491 1495 1501 1508 1511 1513 1514 1518 1523 1522 1523 1525 1525 1525 1524 1523 1522 1522 1522 1523 1524 1525 1527 1528 1531 1532 1533 1532 1531 1535 1539 1541 1543 1544 1546 1547 1549 1548 1547 1547
1482 1487 1493 1496 1502 1508 1511 1513 1514 1516 1518 1520 1522 1522 1522 1521 1520 1521 1521 1519 1518 1518 1518 1521 1521 1523 1523 1525 1527 1528 1529 1530 1530 1530 1533 1537 1539 1542 1544 1546 1547 1545 1545
1486 1490 1493 1498 1504 1507 1511 1513 1514 1517 1519 1520 1521 1519 1517 1516 1517 1516 1516 1515 1515 1515 1515 1515 1516 1518 1519 1519 1521 1523 1524 1525 1526 1527 1528 1532 1535 1538 1539 1541 1542 1543 1543
Wind_Speed
26 27 26 25 23 20 17 15 15 14 13 14 15 15 14 13 11 10 10 9 10 10 10 11 11 12 13 12 13 14 14 15 16 16 16 14 13 13 12 13 13 14 13
26 26 25 24 24 23 20 17 15 15 14 14 15 15 14 12 11 9 9 8 8 8 9 10 10 12 13 12 12 13 14 15 15 15 14 13 13 13 11 11 11 11 11
25 26 24 24 24 24 22 19 16 14 14 14 14 14 13 12 11 9 8 8 8 8 8 8 9 10 11 13 13 14 15 15 15 14 13 13 13 12 11 9 9 9 10
24 23 24 23 24 25 23 20 18 16 14 14 13 13 12 10 9 8 7 7 7 7 7 7 8 8 9 11 12 12 10 9 11 10 10 10 11 10 10 8 8 8 9
25 23 23 23 24 24 23 21 19 17 16 15 14 12 11 10 9 9 7 7 6 6 7 6 6 6 8 8 8 9 10 9 7 8 8 8 8 9 9 8 7 7 7
25 24 23 23 23 23 22 22 20 19 17 16 14 13 12 10 9 8 7 6 5 4 5 6 5 5 5 7 7 7 6 6 5 5 4 5 6 7 7 7 6 6 6
26 25 23 23 22 21 20 21 20 19 18 17 15 14 13 11 9 8 7 6 5 4 4 4 5 4 5 5 6 7 7 6 3 2 3 3 2 3 5 6 6 5 4
25 24 23 23 21 20 19 18 19 19 18 17 16 15 14 12 10 9 8 7 6 5 5 4 4 5 5 5 5 5 7 7 6 5 4 3 5 4 1 3 5 4 2
25 24 24 24 23 21 19 18 18 17 17 16 15 14 13 12 10 9 9 8 8 7 7 7 6 6 6 6 6 6 7 7 7 7 7 5 2 6 4 1 2 1 1
25 25 25 25 24 23 22 20 19 18 17 16 15 14 13 12 11 10 10 10 10 9 9 9 9 9 9 8 7 7 8 8 9 8 8 8 6 5 6 3 3 2 2
27 27 26 26 26 24 23 22 20 19 17 16 15 14 14 13 12 11 11 11 12 12 12 12 13 13 12 11 11 10 11 11 11 10 9 9 8 7 8 7 7 6 6
29 29 28 28 27 25 24 23 22 20 19 17 16 15 14 13 12 12 12 13 13 14 14 15 16 17 15 14 13 12 12 13 12 11 11 10 11 10 10 9 8 7 5
29 26 27 27 27 27 26 24 23 21 20 19 17 16 15 14 13 13 14 14 14 15 14 13 11 11 12 12 11 11 12 12 10 7 7 10 11 11 10 10 8 6 5
30 28 27 27 28 29 27 26 24 22 21 20 18 16 15 14 13 13 14 15 15 14 10 12 12 12 13 13 11 10 9 7 4 1 3 6 11 10 9 8 9 7 6
30 30 29 27 29 31 30 27 26 23 21 19 18 16 15 14 13 11 12 12 13 13 14 13 12 11 11 12 11 12 12 9 9 8 6 6 5 3 4 4 6 10 9
33 32 29 29 28 29 30 28 26 23 22 21 19 17 15 13 11 10 11 12 13 13 13 15 10 11 11 11 10 11 10 9 8 9 8 9 11 11 11 10 12 14 14
35 33 30 28 27 29 27 26 24 23 22 21 19 16 13 12 11 11 11 10 10 11 11 12 14 13 10 11 11 14 12 13 10 8 8 9 10 13 11 9 11 11 14
35 34 31 28 27 27 26 24 23 23 22 20 18 15 13 12 12 12 12 11 9 9 9 10 11 11 12 10 13 12 11 9 9 10 8 10 10 12 11 11 11 12 12
35 34 32 29 26 25 23 23 22 20 19 18 16 14 13 14 15 15 13 12 10 10 9 10 9 11 12 13 12 10 10 10 10 9 12 11 10 10 10 9 8 8 6
33 34 31 28 26 22 18 19 19 20 17 16 16 15 14 16 16 15 14 14 12 11 11 11 11 12 13 14 15 14 13 14 14 13 13 11 10 8 7 6 5 4 4
27 33 33 30 28 20 15 13 12 15 12 13 14 17 17 16 16 15 14 14 13 13 14 15 15 14 15 16 17 15 15 15 14 13 13 11 10 9 8 7 5 6 6
25 31 30 29 25 19 12 8 8 9 12 16 19 18 17 16 16 15 16 16 16 15 15 16 15 15 17 20 21 20 15 14 15 15 16 14 13 11 9 8 7 7 6
23 26 27 27 23 20 14 11 8 14 13 17 18 19 17 16 16 16 16 17 18 18 16 15 15 15 17 20 22 15 10 10 21 15 16 16 16 14 12 10 8 8 7
16 19 21 22 22 15 6 3 7 4 7 12 15 17 15 14 14 14 15 15 17 17 17 17 17 17 18 19 24 27 14 12 16 14 19 19 18 16 16 13 11 9 9
7 11 11 11 11 6 1 5 2 2 5 7 13 12 11 11 11 13 16 17 16 18 17 17 16 16 18 21 24 31 23 16 16 13 20 24 23 20 17 15 13 10 9
3 2 5 11 8 5 4 2 3 3 4 5 8 9 9 10 12 15 18 17 16 16 16 17 17 17 19 21 23 26 34 23 21 20 15 25 24 19 18 17 14 11 9
Wind_Direction
178 174 171 169 170 179 181 175 165 158 152 147 148 147 146 145 141 137 127 115 106 104 102 96 91 85 88 95 100 104 103 99 95 91 90 86 78 80 89 90 94 96 99
171 172 174 174 173 180 185 184 178 167 159 154 154 154 153 151 150 145 134 121 111 105 101 97 91 86 88 96 104 105 103 100 95 92 90 86 83 74 83 90 93 93 100
173 171 175 178 177 183 188 187 186 179 171 163 159 158 159 160 157 152 147 139 130 119 111 100 94 89 88 90 100 104 106 101 92 90 84 80 86 74 72 77 85 91 94
173 173 178 180 181 185 189 191 189 186 180 174 169 164 163 162 162 163 161 151 143 131 120 118 111 104 102 106 104 107 113 106 91 85 87 82 84 81 75 69 73 81 90
175 176 179 182 183 187 189 191 192 190 187 184 178 172 171 169 170 171 174 166 155 146 138 131 124 123 120 122 128 126 120 115 107 90 83 71 76 80 79 77 69 73 81
176 180 180 182 182 187 188 190 191 191 189 189 185 182 178 179 178 177 177 179 172 168 157 149 151 146 145 143 145 151 144 135 124 122 118 76 80 80 75 76 77 73 66
181 184 186 184 182 185 185 187 189 189 190 191 189 189 189 187 186 184 189 192 192 189 197 180 172 174 168 177 174 175 181 183 189 220 168 164 111 92 84 76 72 80 76
188 189 192 187 188 188 188 189 189 189 191 193 194 193 194 195 196 194 197 203 207 210 217 222 210 198 202 197 205 209 214 211 210 225 203 180 202 203 139 92 83 64 71
194 199 198 194 193 195 194 194 194 194 195 197 198 199 200 204 206 207 207 214 222 224 228 238 242 234 227 221 219 229 231 236 237 227 236 251 241 207 195 131 81 59 40
202 207 205 202 202 202 200 200 199 199 200 202 203 205 207 210 216 220 222 227 232 240 242 244 248 252 248 244 238 239 246 247 252 246 238 238 238 236 202 196 195 210 229
208 211 211 210 209 208 206 204 203 203 205 205 208 210 215 220 225 232 238 241 245 247 250 253 255 255 257 255 252 250 256 253 255 257 250 241 231 215 215 223 214 226 246
211 211 213 216 214 214 211 210 208 208 209 212 214 219 224 228 234 243 249 251 254 258 260 258 258 258 256 261 260 259 260 258 257 253 253 236 230 220 221 213 229 257 250
216 215 214 216 218 220 219 216 214 213 214 217 220 222 228 234 242 249 254 259 261 260 267 276 263 267 283 274 266 261 256 255 262 257 244 229 222 214 217 216 221 220 254
221 219 219 221 222 224 223 223 221 218 219 221 224 227 232 239 245 252 258 262 263 260 257 258 260 266 265 265 261 255 257 265 265 30 164 201 222 222 225 227 222 230 242
231 228 229 231 232 227 224 223 223 220 221 222 225 229 234 241 250 255 262 265 264 260 253 255 256 261 263 266 261 249 235 224 247 244 244 260 277 215 190 169 229 256 271
237 234 234 238 236 224 222 223 224 220 220 223 227 230 235 240 251 260 266 272 265 259 254 257 247 251 238 251 245 245 233 218 237 250 250 246 252 249 248 236 256 273 277
241 238 237 238 233 225 224 224 222 222 224 226 230 229 231 244 257 266 273 278 268 258 255 245 248 245 247 246 250 251 249 257 246 252 252 249 251 254 243 250 272 277 289
246 240 240 236 231 226 225 228 230 227 225 224 225 231 244 263 272 270 274 272 264 260 252 243 243 241 242 246 247 244 233 236 252 238 255 242 242 248 243 255 264 278 286
253 244 240 237 229 225 225 233 230 221 224 228 235 244 263 277 285 281 273 269 265 258 253 251 246 240 235 236 230 225 211 217 223 213 230 220 225 234 248 255 268 273 272
249 246 241 234 228 226 239 241 235 227 227 233 241 251 269 278 278 277 274 270 268 263 259 256 255 252 242 231 225 218 209 221 211 220 226 209 208 210 245 255 264 270 282
243 241 236 226 226 228 242 254 255 231 227 251 261 266 274 280 280 279 278 276 272 263 263 263 261 251 234 223 218 192 180 191 204 212 226 215 220 233 234 240 251 277 295
246 240 231 224 226 227 213 264 304 303 292 284 283 288 291 287 289 292 288 282 274 269 268 269 266 251 233 225 211 194 163 179 197 205 216 216 221 226 225 227 241 259 280
236 238 230 226 222 219 194 200 213 291 307 297 306 304 302 299 297 298 298 290 283 279 273 265 257 251 242 227 214 200 173 197 190 196 210 221 225 228 238 246 251 267 283
234 231 223 216 204 183 160 204 260 221 241 303 298 303 303 306 310 312 310 300 288 279 273 265 259 251 242 232 222 213 210 210 184 182 196 205 217 226 238 247 258 272 291
248 238 232 198 158 145 351 340 43 15 347 326 296 307 315 321 325 325 322 310 296 282 273 269 264 257 244 232 228 222 223 224 212 196 194 199 209 215 226 239 250 258 275
85 166 157 145 129 79 40 319 6 333 304 280 296 299 307 319 322 325 323 315 303 290 280 270 264 258 249 240 233 234 229 228 227 220 214 205 209 209 214 223 235 246 266